Location: *
(40.8319°N, 0.7989°W)
Time: 14:51:16
(UTC+00:00)

Daily predictions for brighter satellites

Satellite Brightness Start Highest point End
(mag) Time Altitude Azimuth Time Altitude Azimuth Time Altitude Azimuth
FALCON 9 R/B 4.5 18:45:24 10° WSW 18:51:56 41° SSE 19:23:43 11° ESE
NOSS 3-3 (A) 3.9 18:53:10 10° SSW 18:58:50 68° ESE 19:05:12 10° NE
NOSS 3-3 (C) 3.9 18:53:16 10° SSW 18:58:56 67° ESE 19:05:17 10° NE
CZ-2C R/B 4.3 18:57:40 10° ENE 18:59:45 12° E 19:01:49 10° ESE
Cosmos 2251 Rocket 3.6 18:54:44 10° S 18:59:59 59° ESE 19:05:17 10° NNE
Cosmos 1726 3.3 18:57:32 10° SE 19:00:33 23° E 19:03:34 10° NE
STARLINK-1113 3.6 18:56:41 10° NW 19:00:50 82° NE 19:04:58 10° SE
ARGOS 3.9 18:58:20 10° SE 19:03:09 35° ENE 19:07:58 10° N
STARLINK-60 4.4 19:02:03 10° S 19:04:34 21° SE 19:07:05 10° E
YAOGAN 1 3.6 19:00:35 10° S 19:04:47 52° W 19:09:01 10° NNW
STARLINK-1119 3.6 19:01:39 10° NW 19:05:48 89° ENE 19:09:57 10° SE
SJ-6B 4.1 19:03:17 10° SE 19:06:39 25° ENE 19:10:03 10° NNE
ISS -3.7 19:03:32 10° NW 19:06:54 68° NE 19:10:14 10° ESE
SL-14 R/B 3.9 19:03:36 10° NNW 19:07:35 62° W 19:11:30 10° S
BREEZE M DEB (TANK) 4.0 19:07:01 10° SE 19:08:23 12° ESE 19:10:12 10° E
STARLINK-1114 3.7 19:06:37 10° NW 19:10:46 84° SW 19:14:54 10° SE
USA 186 2.7 19:08:33 10° SE 19:11:34 31° ENE 19:14:30 10° N
Cosmos 1626 Rocket 3.6 19:09:17 10° N 19:13:41 89° WSW 19:18:00 10° S
STARLINK-1130 (DARKSAT) 3.7 19:11:37 10° NW 19:15:45 76° SW 19:19:52 10° SE
Cosmos 1603 3.6 19:11:13 10° SSW 19:16:49 72° ESE 19:22:25 10° NNE
FREGAT/IRIS 3.0 19:15:57 10° SE 19:18:28 34° ENE 19:20:58 10° N
Ariane Rocket 3.0 19:15:12 10° SSE 19:20:13 67° ENE 19:25:15 10° N
Cosmos 1758 3.9 19:16:19 10° SSW 19:20:22 64° W 19:24:26 10° N
STARLINK-1084 3.8 19:16:37 10° NW 19:20:44 69° SW 19:24:45 10° SE
Resurs 01 Rocket 3.4 19:21:42 12° E 19:23:33 15° ENE 19:26:02 10° NNE
Cosmos 1602 Rocket 3.6 19:19:54 10° N 19:24:20 89° WNW 19:28:44 10° S
ATLAS 2AS CENTAUR R/B 3.7 19:17:43 10° NNW 19:24:34 34° NE 19:29:59 14° E
MOS 1 4.4 19:19:10 10° SSE 19:24:39 57° ENE 19:30:11 10° N
HJ-1C 4.0 19:21:39 10° S 19:24:57 60° W 19:28:18 10° NNW
STARLINK-1098 4.0 19:21:37 10° WNW 19:25:43 63° SW 19:29:33 11° SE
Meteor 1-16 Rocket 4.3 19:21:28 10° SSE 19:26:35 48° E 19:31:52 10° NNE
Meteor 1-21 Rocket 4.2 19:21:17 10° N 19:26:49 68° E 19:32:19 10° SSE
USA 234 3.9 19:21:40 10° ENE 19:27:23 32° SE 19:33:05 10° S
H-2A R/B 4.0 19:18:12 10° W 19:29:18 22° SW 19:33:00 10° SSE
SL-4 R/B 1.4 19:26:21 10° SW 19:29:45 82° SE 19:33:10 10° NE
GEOS 3 Rocket 4.0 19:24:53 10° SSE 19:29:57 64° WSW 19:35:08 10° NW
IRIDIUM 114 4.4 19:24:59 10° N 19:30:09 59° E 19:35:17 10° SSE
Aureole 3 3.9 19:25:47 10° S 19:30:11 87° W 19:35:55 10° N
STARLINK-1123 4.1 19:26:37 10° WNW 19:30:40 57° SW 19:34:20 12° SSE
Cosmos 1726 Rocket 4.3 19:28:11 10° SSE 19:32:05 32° E 19:36:02 10° NNE
SeaSat 1 4.2 19:28:25 10° N 19:32:54 36° NW 19:37:21 10° WSW
Cosmos 1340 Rocket 4.2 19:32:48 18° ESE 19:33:52 20° E 19:36:49 10° NE
Cosmos 1626 4.4 19:30:54 10° NNW 19:34:04 27° W 19:37:13 10° SSW
ATLAS 5 CENTAUR R/B 2.5 19:31:52 10° SSE 19:35:06 23° ESE 19:38:31 10° ENE
CZ-4 R/B 4.3 19:33:04 10° SW 19:35:26 16° W 19:37:50 10° NW
STARLINK-1097 4.3 19:31:35 10° WNW 19:35:36 51° SW 19:39:05 13° SSE
IRIDIUM 103 4.3 19:34:07 10° N 19:39:21 73° E 19:44:33 10° S
STARLINK-1099 4.4 19:36:36 10° WNW 19:40:34 46° SW 19:43:52 14° SSE
Cosmos 1825 Rocket 3.7 19:37:06 10° N 19:41:24 51° E 19:45:02 14° SSE
Cosmos 292 Rocket 4.1 19:40:05 10° NNW 19:44:51 67° WSW 19:49:38 10° S
SL-8 R/B 3.6 19:41:30 10° WNW 19:46:18 83° NNE 19:49:10 24° ESE
Cosmos 614 Rocket 4.1 19:41:17 10° S 19:46:18 49° ESE 19:51:20 10° NNE
Cosmos 1703 3.7 19:43:03 10° N 19:46:49 40° ENE 19:48:40 24° SE
SPOT 3 Rocket 3.7 19:45:41 16° SE 19:49:44 52° ENE 19:54:47 10° N
Abrixas rocket 4.3 19:48:16 10° NW 19:50:26 18° N 19:52:19 11° NE
Cosmos 1943 Rocket 2.9 19:45:44 10° NNW 19:51:08 54° WSW 19:56:32 10° S
Cosmos 2369 Rocket 2.4 19:47:27 10° NNW 19:53:07 71° WSW 19:58:43 10° SSE
COSMOS 2455 4.2 19:49:17 10° N 19:54:04 24° NE 19:56:39 18° E
Cosmos 1758 Rocket 3.4 19:49:51 10° N 19:54:12 88° ENE 19:58:24 11° S
Cosmos 2074 Rocket 4.0 19:48:14 10° N 19:54:33 82° E 20:00:51 10° S
SL-24 R/B 3.7 19:51:40 10° NNE 19:55:43 62° E 19:59:24 10° S
Cosmos 1953 3.5 19:52:18 10° SSW 19:56:06 44° W 19:59:56 10° N
Cosmos 1437 2.5 19:53:29 10° N 19:56:31 82° W 19:58:05 25° S
Cosmos 921 Rocket 4.5 19:53:58 10° NNE 19:57:01 19° ENE 19:57:12 19° ENE
IRIDIUM 106 4.5 19:52:23 10° N 19:57:37 77° W 20:02:48 10° S
Cosmos 407 Rocket 3.5 19:52:41 10° S 19:57:40 51° ESE 20:02:38 10° NNE
CZ-2C R/B 3.6 19:52:58 10° NNE 19:57:41 71° ESE 20:02:17 10° S
Cosmos 2228 2.9 19:54:04 10° S 19:58:20 77° E 20:02:40 10° N
Cosmos 1606 Rocket 3.5 19:56:31 10° S 20:00:56 88° E 20:05:25 10° N
Cosmos 1908 3.1 19:57:44 10° S 20:01:33 69° E 20:05:25 10° NNE
Cosmos 1953 Rocket 3.6 19:57:22 10° N 20:01:48 58° E 20:04:01 28° SSE
Cosmos 1818 4.0 20:00:13 10° SW 20:05:36 65° NW 20:11:02 10° NNE
SL-08 RB Rocket 3.8 20:06:01 15° S 20:09:46 78° WSW 20:14:23 10° NNW
Cosmos 1610 Rocket 4.4 20:04:24 10° N 20:10:35 71° E 20:14:59 20° SSE
Cosmos 2263 4.5 20:07:42 10° NNW 20:13:16 67° WSW 20:17:25 18° S
Cosmos 1943 4.2 20:09:32 10° SW 20:15:00 49° WNW 20:20:32 10° NNE
Meteor 1-11 4.2 20:10:54 10° N 20:16:40 69° E 20:19:34 30° SSE
CZ-2C R/B 3.9 20:12:36 10° S 20:17:19 44° W 20:21:56 10° NNW
Cosmos 1461 4.0 20:15:11 10° NNW 20:19:18 33° NE 20:19:51 32° ENE
APEX 4.4 20:12:56 10° NNW 20:19:21 58° ENE 20:21:10 40° ESE
Cosmos 1954 Rocket 4.4 20:21:02 39° E 20:21:02 39° E 20:25:42 10° NE
H-2A R/B 3.6 20:21:57 10° SSW 20:26:41 34° W 20:31:21 10° NNW
Cosmos 1023 Rocket 4.3 20:24:19 10° SSW 20:29:29 77° ESE 20:34:39 10° NNE
Cosmos 1295 Rocket 4.4 20:24:55 10° N 20:31:14 75° E 20:34:11 34° SSE
Resurs 1-3 3.8 20:33:01 39° S 20:34:31 69° WSW 20:38:54 10° NNW
Cosmos 1656 Rocket 4.0 20:33:04 10° NNW 20:38:39 63° WSW 20:41:04 33° S
CZ-2C R/B 2.7 20:35:25 10° N 20:40:34 75° WNW 20:45:46 10° SSW
STARLINK-60 4.2 20:37:36 10° WSW 20:40:39 40° NW 20:40:39 40° NW
ISS -1.1 20:41:33 10° W 20:43:16 14° SW 20:43:16 14° SW
NOSS 3-4 (A) 3.8 20:36:32 10° NNW 20:43:40 82° NE 20:46:22 45° SE
NOSS 3-4 (C) 3.8 20:36:38 10° NNW 20:43:46 81° NE 20:46:27 45° SE
Cosmos 2341 Rocket 3.9 20:38:36 10° N 20:44:59 71° E 20:46:39 50° SE
Terra 3.9 20:55:01 16° NE 20:55:01 16° NE 20:56:36 10° NNE
Cosmos 2058 Rocket 4.1 20:53:44 20° SW 20:56:29 45° WNW 21:00:50 10° N
Resurs 01 Rocket 2.1 20:59:16 51° WSW 20:59:35 53° W 21:03:55 10° NNW
Cosmos 2218 Rocket 4.0 20:56:21 10° N 21:02:26 59° ENE 21:02:26 59° ENE
USA 245 4.1 21:08:37 82° ENE 21:08:37 82° ENE 21:14:48 10° N
SL-4 R/B 4.0 21:06:59 10° WNW 21:09:22 21° NNW 21:09:22 21° NNW
USA 234 3.4 21:04:11 10° NE 21:10:41 72° NW 21:17:11 10° WSW
Cosmos 1140 Rocket 4.4 21:05:59 10° SW 21:10:58 46° WNW 21:15:58 10° N
Spot 2 Rocket 3.5 21:11:43 76° NNW 21:11:43 76° NNW 21:16:26 10° NNW
Cosmos 2181 Rocket 3.9 21:12:15 64° SSW 21:13:18 87° W 21:19:33 10° N
ATLAS 2AS CENTAUR R/B 3.0 21:08:40 10° NW 21:15:59 61° WSW 21:17:26 51° SSW
ATLAS 5 CENTAUR R/B 4.4 21:09:19 10° SW 21:50:39 - ESE 21:14:55 29° S
ATLAS 5 CENTAUR R/B 3.1 21:15:37 10° WSW 21:19:26 34° NW 21:23:40 10° NNE
SL-8 Rocket 3.9 21:16:38 10° N 21:22:58 82° W 21:23:20 78° SW
Cosmos 864 Rocket 4.4 21:20:14 10° N 21:25:58 75° NNE 21:25:58 75° NNE
In-Cosmos 22 Rocket 4.5 21:27:02 10° N 21:32:07 68° NNW 21:32:07 68° NNW
Cosmos 2366 rocket 4.0 21:28:26 10° N 21:34:06 76° NNW 21:34:06 76° NNW
COSMOS 2455 3.2 21:34:32 10° NW 21:39:49 61° WNW 21:39:49 61° WNW
ERS-1 Rocket 4.2 21:47:39 38° NNW 21:47:39 38° NNW 21:50:43 10° NNW
Cosmos 1697 Rocket 4.3 22:14:18 10° NNW 22:17:11 29° N 22:17:11 29° N
CZ-4C R/B 3.9 22:16:10 10° NNW 22:22:18 35° NE 22:22:18 35° NE
Terra 4.3 22:33:55 19° NNW 22:33:55 19° NNW 22:35:21 10° NNW
Cosmos 1980 Rocket 4.2 22:42:43 10° NNW 22:44:56 23° N 22:44:56 23° N
Cosmos 2344 4.5 23:08:24 10° NNW 23:18:15 70° NE 23:18:38 70° ENE
